Regional Weather Roundup
Issued by NWS

Home | Current Version | Previous Version | Graphics & Text | Print | Product List | Glossary On
Versions: 1 2 3 4 5 6 7 8 9 10 11 12 13 14 15 16 17 18 19 20 21 22 23 24 25 26 27 28 29 30 31 32 33 34 35 36 37 38 39 40 41 42 43 44 45 46 47 48 49 50
000
ASUS43 KDTX 291410
RWRMI
MICHIGAN HOURLY REGIONAL WEATHER ROUNDUP
NATIONAL WEATHER SERVICE DETROIT/PONTIAC MI
1000 AM EDT FRI AUG 29 2014

NOTE: "FAIR" INDICATES FEW OR NO CLOUDS BELOW 12,000 FEET WITH NO
SIGNIFICANT WEATHER AND/OR OBSTRUCTION TO VISIBILITY.

MIZ047>049-052>055-059>063-066>070-074>076-081>083-291500-
SOUTHEAST LOWER MICHIGAN

CITY           SKY/WX    TMP DP  RH WIND       PRES   REMARKS
ADRIAN         PTSUNNY   63  55  75 SE5       30.14F
ALMA           PTSUNNY   66  58  75 S6        30.11S
ANN ARBOR      MOSUNNY   65  53  65 S8        30.14S
BAD AXE        CLOUDY    64  58  82 S10       30.15S
CARO           CLOUDY    65  58  77 SE9       30.12S
DETROIT CITY   CLOUDY    68  55  63 SE6       30.16R
DETROIT        PTSUNNY   68  56  65 SE12      30.15R
FLINT          PTSUNNY   68  56  65 SE10      30.12F
GROSSE ILE     PTSUNNY   68  57  68 S12       30.14R
HILLSDALE      CLOUDY    64  55  72 S6        30.12S
HOWELL         MOSUNNY   64  57  77 S12       30.12F

CITY           SKY/WX    TMP DP  RH WIND       PRES   REMARKS
JACKSON        PTSUNNY   66  52  60 SE13      30.11F
LAMBERTVILLE   MOSUNNY   66  54  63 SE6       30.14F
LANSING        PTSUNNY   65  51  60 SE12      30.11F
LAPEER         FAIR      64  57  77 S5        30.14F
MASON          PTSUNNY   64  50  61 SE9       30.11S
MONROE         MOSUNNY   66  55  68 S6        30.14R
MT. CLEMENS    PTSUNNY   66  55  65 S10       30.14S
PONTIAC        PTSUNNY   67  55  65 S8        30.14S
PORT HOPE        N/A     65  54  67 S5        30.13S
PORT HURON     PTSUNNY   63  59  88 SE6       30.16S
TRI CITIES     CLOUDY    65  56  72 SE9       30.12F
TROY           PTSUNNY   67  56  66 SE5       30.16S
SAGINAW HB     CLOUDY    64  59  82 S8        30.11F
$$
MIZ043>046-050>051-056>058-064>065-071>073-077>080-291500-
SOUTHWEST LOWER MICHIGAN

CITY           SKY/WX    TMP DP  RH WIND       PRES   REMARKS
BATTLE CREEK   CLOUDY    65  54  67 SE8       30.09F
BENTON HARBOR  CLOUDY    67  60  78 SE10      30.04S
BIG RAPIDS     HVY RAIN  62  57  85 S9        30.07S
COLDWATER      CLOUDY    64  58  81 SE7       30.10F
FREMONT        LGT RAIN  62  57  83 SE10      30.04F
HOLLAND        RAIN      65  60  84 SE10      30.05S
GRAND RAPIDS   CLOUDY    65  56  72 SE9       30.07F
IONIA          CLOUDY    65  53  65 SE9       30.08F
KALAMAZOO      LGT RAIN  65  56  72 S9        30.08F
LUDINGTON      CLOUDY    63  60  91 S9        30.01S
MARSHALL       CLOUDY    64  53  69 SE7       30.09F
MOUNT PLEASANT CLOUDY    62  56  81 SE7       30.09F
MUSKEGON       CLOUDY    65  59  81 SE9       30.03F
SOUTH HAVEN    CLOUDY    66  61  84 SE6       30.05S
$$
MIZ016>042-291500-
NORTHERN LOWER MICHIGAN

CITY           SKY/WX    TMP DP  RH WIND       PRES   REMARKS
ALPENA         LGT RAIN  62  56  80 SE8       30.11F
BEAVER ISLAND  LGT RAIN  60  59  95 SE7       30.04F
BELLAIRE       HVY RAIN  60  57  92 S3        30.05F VSB 1
CADILLAC       CLOUDY    60  56  84 SE9       30.05F
CHARLEVOIX     RAIN      59  59  99 SE9       30.07F
FRANKFORT      HVY RAIN  62  58  87 SE7       30.01R
GAYLORD        HVY RAIN  56  55  97 S9        30.10S FOG
GRAYLING       DRIZZLE   56  56  99 SE8       30.09F
HARBOR SPRINGS RAIN      59  56  89 E5        30.07S
HOUGHTON LAKE  CLOUDY    59  56  89 SE8       30.09F
MANISTEE       CLOUDY    63  57  82 SE6       30.00F
OSCODA         LGT RAIN  64  55  73 S7        30.12F
PELLSTON       LGT RAIN  58  56  93 SE7       30.07F
TRAVERSE CITY  LGT RAIN  60  57  89 E6        30.02F
$$
MIZ007>008-015-291500-
EASTERN UPPER MICHIGAN

CITY           SKY/WX    TMP DP  RH WIND       PRES   REMARKS
KINROSS        CLOUDY    59  57  94 SE12      30.07S
MACKINAC ISLAN LGT RAIN  58  56  91 S12       30.06F
NEWBERRY       CLOUDY    59  56  88 S8        30.04S
S. S. MARIE    CLOUDY    60  55  83 SE6       30.07F
MUNISING         N/A     63  58  83 S8        29.97F
$$
MIZ004>006-011>014-085-291500-
CENTRAL UPPER MICHIGAN

CITY           SKY/WX    TMP DP  RH WIND       PRES   REMARKS
MANISTIQUE     LGT RAIN  60  60  98 SE12      30.01F
ESCANABA       CLOUDY    61  57  88 SE10G16   29.98F
MENOMINEE      CLOUDY    63  59  88 SE9       29.94F
SAWYER-GWINN   CLOUDY    59  57  94 S12       29.98F
$$
MIZ001>003-009>011-084-291500-
WESTERN UPPER MICHIGAN

CITY           SKY/WX    TMP DP  RH WIND       PRES   REMARKS
IRON MOUNTAIN  CLOUDY    60  58  92 SE8       29.94F FOG
HOUGHTON       CLOUDY    60  56  86 SE9       29.92F
COPPER HARBOR    N/A     62  56  80 MISG      29.92F
$$

ABBREVIATIONS USED IN REMARKS
   TC - TEMPERATURE IN CELSIUS
  WCI - WIND CHILL INDEX
   HX - HEAT INDEX
  VSB - VISIBILITY




USA.gov is the U.S. government's official web portal to all federal, state and local government web resources and services.